{"data":{"norad_id":27944,"intl_designator":"2003-042F","name":"LARETS","alt_names":[],"object_type":"PAYLOAD","status":"ACTIVE","operator":null,"country":"CIS","launch_date":"2003-09-27","launch_site_code":"PLMSC","launch_vehicle":null,"mission":null,"orbit_class":"UNKNOWN","rcs_meters":0.136,"size_class":null,"mass_kg":null,"dimensions":null,"purposes":["science"],"wikipedia_slug":null,"has_3d_model":false,"image_url":null,"decayed_at":null,"tle_current":{"epoch":"2026-05-25T03:34:33.537792Z","epoch_age_seconds":72711,"freshness":"FRESH","line1":"1 27944U 03042F   26145.14899928  .00000045  00000+0  18267-4 0  9999","line2":"2 27944  98.4133 306.8742 0013480 106.6861 253.5821 14.63864271209997","mean_motion":14.63864271,"eccentricity":0.001348,"inclination_deg":98.4133,"raan_deg":306.8742,"arg_perigee_deg":106.6861,"mean_anomaly_deg":253.5821,"bstar":1.8267e-5,"rev_number":20999,"period_min":98.369775704431,"perigee_km":671.20871995388,"apogee_km":690.23940938423,"semimajor_km":7058.8610646691,"source":"CELESTRAK","updated_at":"2026-05-25T13:38:24.773511Z"}}}